Weather History for EGNS - November, 2012

Change the Weather History Date:

Saturday, November 3, 2012

  Actual Average Record
Temperature  
Mean Temperature 45 °F -  
Max Temperature 48 °F 50 °F 59 °F (2005)
Min Temperature 42 °F 42 °F 33 °F (1998)
Degree Days  
Heating Degree Days 20    
Moisture  
Dew Point 34 °F    
Average Humidity 62    
Maximum Humidity 81    
Minimum Humidity 40    
Precipitation  
Precipitation 0.00 in - - ()
Sea Level Pressure  
Sea Level Pressure 29.24 in    
Wind  
Wind Speed 13 mph ()    
Max Wind Speed 22 mph    
Max Gust Speed -    
Visibility 6.2 miles    
Events Rain    
Averages and records for this station are not official NWS values.
T = Trace of Precipitation, MM = Missing Value Source: Averaged Metar Reports

Daily Weather History Graph

Daily Weather History Graph

Search for Another Location

Airport or City:

Trip Planner

Search our weather history database for the weather conditions in past years. The results will help you decide how hot, cold, wet, or windy it might be!

Date:

Astronomy

Nov. 03, 2012 Rise Set
Actual Time 7:23 AM GMT 4:39 PM GMT
Civil Twilight 6:46 AM GMT 5:17 PM GMT
Nautical Twilight 6:03 AM GMT 5:59 PM GMT
Astronomical Twilight 5:22 AM GMT 6:40 PM GMT
Moon 7:50 PM GMT (11/3) 11:36 AM GMT (11/3)
Length of Visible Light 10h 31m
Length of Day
9h 15m
Waning Gibbous, 82% of the Moon is Illuminated
Nov 3
Waning Gibbous
Nov 7
Last Quarter
Nov 13
New
Nov 20
First Quarter
Nov 28
Full

Hourly Weather History & Observations

Time (GMT) Temp. Windchill Dew Point Humidity Pressure Visibility Wind Dir Wind Speed Gust Speed Precip Events Conditions
12:50 AM 44.6 °F 38.8 °F 35.6 °F 71% 29.21 in 6.2 mi WSW 11.5 mph - N/A   Partly Cloudy
1:50 AM 44.6 °F 39.7 °F 37.4 °F 76% 29.21 in 6.2 mi West 9.2 mph - N/A   Partly Cloudy
2:50 AM 44 °F - 38 °F 73% 29.21 in 25 mi West 6.9 mph - - Rain Light Rain Showers
2:50 AM 44.6 °F 40.7 °F 37.4 °F 76% 29.21 in 6.2 mi West 6.9 mph - N/A   Mostly Cloudy
3:50 AM 42.8 °F 38.0 °F 37.4 °F 81% 29.18 in 6.2 mi WSW 8.1 mph - N/A   Partly Cloudy
4:50 AM 42.8 °F 38.0 °F 35.6 °F 76% 29.18 in 6.2 mi West 8.1 mph - N/A   Scattered Clouds
5:20 AM 42.8 °F 37.0 °F 35.6 °F 76% 29.18 in 6.2 mi West 10.4 mph - N/A   Scattered Clouds
5:50 AM 43 °F - 36 °F 69% 29.20 in 25 mi West 9.2 mph - -   Partly Cloudy
5:50 AM 42.8 °F 37.5 °F 35.6 °F 76% 29.18 in 6.2 mi West 9.2 mph - N/A   Partly Cloudy
6:20 AM 42.8 °F 36.6 °F 35.6 °F 76% 29.18 in 6.2 mi West 11.5 mph - N/A   Partly Cloudy
6:50 AM 44.6 °F 38.8 °F 37.4 °F 76% 29.21 in 6.2 mi West 11.5 mph - N/A   Partly Cloudy
7:20 AM 42.8 °F 36.6 °F 35.6 °F 76% 29.21 in 6.2 mi West 11.5 mph - N/A   Scattered Clouds
7:50 AM 42.8 °F 36.6 °F 35.6 °F 76% 29.21 in 6.2 mi West 11.5 mph - N/A   Scattered Clouds
8:20 AM 42.8 °F 36.6 °F 33.8 °F 70% 29.24 in 6.2 mi West 11.5 mph - N/A   Scattered Clouds
8:50 AM 43 °F - 34 °F 62% 29.24 in 31 mi West 11.5 mph - -   Partly Cloudy
8:50 AM 42.8 °F 36.6 °F 33.8 °F 70% 29.24 in 6.2 mi West 11.5 mph - N/A   Partly Cloudy
9:20 AM 44.6 °F 36.9 °F 33.8 °F 66% 29.24 in 6.2 mi West 18.4 mph - N/A   Scattered Clouds
9:50 AM 44.6 °F 37.4 °F 32.0 °F 61% 29.24 in 6.2 mi West 16.1 mph - N/A   Partly Cloudy
10:20 AM 44.6 °F 37.8 °F 32.0 °F 61% 29.24 in 6.2 mi West 15.0 mph - N/A   Scattered Clouds
10:50 AM 46.4 °F 39.2 °F 35.6 °F 66% 29.24 in 6.2 mi WSW 18.4 mph - N/A Rain Light Rain Showers
11:20 AM 44.6 °F 37.2 °F 32.0 °F 61% 29.27 in 6.2 mi WSW 17.3 mph - N/A   Scattered Clouds
11:50 AM 46 °F - 34 °F 51% 29.27 in 25 mi WSW 17.3 mph - - Rain Light Rain Showers
11:50 AM 46.4 °F 39.5 °F 33.8 °F 62% 29.27 in 6.2 mi WSW 17.3 mph - N/A   Mostly Cloudy
12:20 PM 46.4 °F 39.5 °F 33.8 °F 62% 29.27 in 6.2 mi WSW 17.3 mph - N/A   Scattered Clouds
12:50 PM 46.4 °F 39.0 °F 33.8 °F 62% 29.24 in 6.2 mi WSW 19.6 mph - N/A   Scattered Clouds
1:20 PM 46.4 °F 39.2 °F 32.0 °F 57% 29.24 in 6.2 mi WSW 18.4 mph - N/A   Scattered Clouds
1:50 PM 46.4 °F 39.0 °F 28.4 °F 50% 29.24 in 6.2 mi WSW 19.6 mph - N/A   Scattered Clouds
2:20 PM 46.4 °F 39.0 °F 28.4 °F 50% 29.24 in 6.2 mi SW 19.6 mph - N/A   Scattered Clouds
2:50 PM 48 °F - 33 °F 44% 29.26 in 25 mi SW 19.6 mph - -   Partly Cloudy
2:50 PM 48.2 °F - 33.8 °F 58% 29.24 in 6.2 mi SW 19.6 mph - N/A   Scattered Clouds
3:20 PM 46.4 °F 39.0 °F 30.2 °F 53% 29.24 in 6.2 mi SW 19.6 mph - N/A   Scattered Clouds
3:50 PM 46.4 °F 39.5 °F 30.2 °F 53% 29.24 in 6.2 mi SW 17.3 mph - N/A   Scattered Clouds
4:20 PM 46.4 °F 38.7 °F 30.2 °F 53% 29.24 in 6.2 mi SW 20.7 mph - N/A   Scattered Clouds
4:50 PM 46.4 °F 38.5 °F 33.8 °F 62% 29.24 in 6.2 mi SSW 21.9 mph - N/A   Partly Cloudy
5:20 PM 46.4 °F 39.0 °F 30.2 °F 53% 29.24 in 6.2 mi SW 19.6 mph - N/A   Partly Cloudy
5:50 PM 46 °F - 29 °F 40% 29.26 in 25 mi SW 19.6 mph - -   Partly Cloudy
5:50 PM 46.4 °F 39.0 °F 30.2 °F 53% 29.24 in 6.2 mi SW 19.6 mph - N/A   Partly Cloudy
6:20 PM 46.4 °F 39.2 °F 30.2 °F 53% 29.27 in 6.2 mi SW 18.4 mph - N/A   Partly Cloudy
6:50 PM 46.4 °F 39.0 °F 30.2 °F 53% 29.27 in 6.2 mi SW 19.6 mph - N/A   Partly Cloudy
7:20 PM 46.4 °F 39.2 °F 32.0 °F 57% 29.27 in 6.2 mi SW 18.4 mph - N/A   Partly Cloudy
7:50 PM 46.4 °F 39.5 °F 32.0 °F 57% 29.27 in 6.2 mi SW 17.3 mph - N/A   Partly Cloudy
8:20 PM 46.4 °F 39.2 °F 33.8 °F 62% 29.27 in 6.2 mi SW 18.4 mph - N/A   Partly Cloudy
8:50 PM 46 °F - 33 °F 50% 29.27 in 25 mi SW 17.3 mph - -   Partly Cloudy
8:50 PM 46.4 °F 39.5 °F 33.8 °F 62% 29.27 in 6.2 mi SW 17.3 mph - N/A   Partly Cloudy
9:50 PM 46.4 °F 39.0 °F 33.8 °F 62% 29.27 in 6.2 mi SSW 19.6 mph - N/A   Partly Cloudy
10:50 PM 46.4 °F 39.8 °F 35.6 °F 66% 29.27 in 6.2 mi SSW 16.1 mph - N/A   Partly Cloudy
11:50 PM 48 °F - 36 °F 52% 29.27 in 25 mi SSW 19.6 mph - -   Scattered Clouds
11:50 PM 48.2 °F - 35.6 °F 62% 29.27 in 6.2 mi SSW 19.6 mph - N/A   Partly Cloudy